Starlink 4408

operational
NORAD ID: 53206 Int'l Des: 2022-084 Owner: SPXS Country: US Constellation: starlink
LEOCIRCULARRETROGRADESSO

Starlink 4408について

説明を読み込み中...

リアルタイム位置

3D地球を読み込み中...

次回通過

高度履歴

Altitude vs Time

uPlot chart will show altitude changes over time

軌道要素

1 53206U 22084T 25299.40835492 .00000211 00000-0 18829-4 0 9990
2 53206 97.6012 358.8521 0001510 88.3662 271.7738 15.05650449179174
Epoch: Oct 26, 2025 • Age: 8 hours

現在のステータス

高度 572.6 km
速度 7.57 km/s
衛星直下点 -57.30°S, 72.98°E
打ち上げ日 Jul 22, 2022
運用期間 3.2 years
タイプ internet

技術仕様

分類 Payload
質量 297.00 kg
乾燥質量 275.00 kg
総質量 297.00 kg
長さ 0.20 m
直径 2.80 m
スパン 9.00 m
形状 Box + pan
製造者 SPXS
バスタイプ Starlink
フェーズステータス In Orbit
所有者/国 SPXS/US

大規模コンステレーション

Loading constellations...